| time (UTC) | temp C | wind direction | speed KPH | gust KPH | rain 1hr cm | rain 24hr cm | rain mn cm | humidity % | barometer mb |
| 20260506001513 | 0 | 328 | 0.0 | 0.0 | 0.00 | 0.00 | 0.00 | 87 | 1012.1 |
| 20260506000010 | 0 | 328 | 0.0 | 0.0 | 0.00 | 0.00 | 0.00 | 85 | 1011.9 |
| 20260505234522 | 0 | 329 | 0.0 | 0.0 | 0.00 | 0.00 | 0.00 | 84 | 1011.9 |
| 20260505233008 | 0 | 328 | 0.0 | 0.0 | 0.00 | 0.00 | 0.00 | 83 | 1011.9 |
| 20260505231508 | 0 | 329 | 0.0 | 0.0 | 0.00 | 0.00 | 0.00 | 83 | 1011.8 |
| 20260505230009 | 0 | 329 | 0.0 | 0.0 | 0.00 | 0.00 | 0.00 | 81 | 1011.7 |
| 20260505224503 | 1 | 329 | 0.0 | 0.0 | 0.00 | 0.00 | 0.00 | 81 | 1011.7 |
| 20260505223001 | 1 | 329 | 0.0 | 0.0 | 0.00 | 0.00 | 0.00 | 78 | 1011.8 |
| 20260505221602 | 1 | 329 | 0.0 | 0.0 | 0.00 | 0.00 | 0.00 | 77 | 1011.5 |
| 20260505220053 | 2 | 329 | 0.0 | 0.0 | 0.00 | 0.00 | 0.00 | 78 | 1011.4 |
| 20260505214551 | 2 | 329 | 0.0 | 0.0 | 0.00 | 0.00 | 0.00 | 74 | 1011.4 |
| 20260505213046 | 3 | 328 | 0.0 | 0.0 | 0.00 | 0.00 | 0.00 | 71 | 1011.2 |
| 20260505211543 | 4 | 329 | 0.0 | 0.0 | 0.00 | 0.00 | 0.00 | 66 | 1011.2 |
| 20260505210038 | 5 | 328 | 0.0 | 0.0 | 0.00 | 0.00 | 0.00 | 61 | 1011.0 |
| 20260505204545 | 6 | 327 | 0.0 | 0.0 | 0.00 | 0.00 | 0.00 | 60 | 1011.0 |
| 20260505203034 | 6 | 339 | 0.0 | 3.2 | 0.00 | 0.00 | 0.00 | 59 | 1010.8 |
| 20260505201531 | 7 | 332 | 0.0 | 0.0 | 0.00 | 0.00 | 0.00 | 56 | 1010.8 |
| 20260505200025 | 7 | 348 | 1.6 | 8.0 | 0.00 | 0.00 | 0.00 | 54 | 1010.5 |
| 20260505194533 | 7 | 304 | 0.0 | 1.6 | 0.00 | 0.00 | 0.00 | 50 | 1010.4 |
| 20260505193025 | 8 | 277 | 0.0 | 3.2 | 0.00 | 0.00 | 0.00 | 49 | 1010.1 |
| 20260505191521 | 8 | 266 | 1.6 | 8.0 | 0.00 | 0.00 | 0.00 | 49 | 1010.0 |
| 20260505190019 | 8 | 281 | 0.0 | 6.4 | 0.00 | 0.00 | 0.00 | 49 | 1009.9 |
| 20260505184521 | 8 | 297 | 0.0 | 6.4 | 0.00 | 0.00 | 0.00 | 48 | 1009.7 |
| 20260505183017 | 9 | 294 | 1.6 | 11.3 | 0.00 | 0.00 | 0.00 | 45 | 1009.5 |
| 20260505181510 | 9 | 301 | 3.2 | 14.5 | 0.00 | 0.00 | 0.00 | 46 | 1009.4 |
| 20260505180011 | 10 | 283 | 8.0 | 14.5 | 0.00 | 0.00 | 0.00 | 43 | 1009.2 |
| 20260505174543 | 10 | 312 | 0.0 | 11.3 | 0.00 | 0.00 | 0.00 | 40 | 1009.0 |
| 20260505173041 | 10 | 49 | 0.0 | 9.7 | 0.00 | 0.00 | 0.00 | 40 | 1008.9 |
| 20260505171507 | 9 | 316 | 0.0 | 1.6 | 0.00 | 0.00 | 0.00 | 45 | 1008.8 |
| 20260505170008 | 9 | 327 | 0.0 | 3.2 | 0.00 | 0.00 | 0.00 | 44 | 1008.7 |
| 20260505164506 | 9 | 326 | 0.0 | 0.0 | 0.00 | 0.00 | 0.00 | 43 | 1008.6 |
| 20260505163004 | 9 | 317 | 0.0 | 1.6 | 0.00 | 0.00 | 0.00 | 45 | 1008.6 |
| 20260505161506 | 9 | 314 | 0.0 | 6.4 | 0.00 | 0.00 | 0.00 | 45 | 1008.6 |
| 20260505153108 | 10 | 263 | 6.4 | 16.1 | 0.00 | 0.00 | 0.00 | 36 | 1008.4 |
| 20260505151600 | 10 | 262 | 4.8 | 14.5 | 0.00 | 0.00 | 0.00 | 42 | 1008.4 |
| 20260505150120 | 11 | 320 | 1.6 | 9.7 | 0.00 | 0.00 | 0.00 | 41 | 1008.3 |
| 20260505124552 | 10 | 288 | 1.6 | 11.3 | 0.00 | 0.00 | 0.00 | 41 | 1008.0 |
| 20260505123053 | 10 | 276 | 4.8 | 16.1 | 0.00 | 0.00 | 0.00 | 41 | 1008.0 |
| 20260505121611 | 10 | 281 | 3.2 | 14.5 | 0.00 | 0.00 | 0.00 | 40 | 1007.9 |
| 20260505120040 | 10 | 262 | 4.8 | 12.9 | 0.00 | 0.00 | 0.00 | 42 | 1007.8 |
| 20260505114541 | 9 | 301 | 8.0 | 17.7 | 0.00 | 0.00 | 0.00 | 44 | 1007.8 |
| 20260505113046 | 9 | 264 | 6.4 | 14.5 | 0.00 | 0.00 | 0.00 | 44 | 1007.8 |
| 20260505111540 | 10 | 294 | 1.6 | 11.3 | 0.00 | 0.00 | 0.00 | 43 | 1007.8 |
| 20260505101540 | 9 | 270 | 6.4 | 14.5 | 0.00 | 0.00 | 0.00 | 49 | 1007.6 |
| 20260505100042 | 9 | 325 | 4.8 | 16.1 | 0.00 | 0.00 | 0.00 | 47 | 1007.5 |
| 20260505094533 | 8 | 273 | 3.2 | 14.5 | 0.00 | 0.00 | 0.00 | 50 | 1007.4 |
| 20260505093033 | 8 | 280 | 8.0 | 16.1 | 0.00 | 0.00 | 0.00 | 45 | 1007.4 |
| 20260505091536 | 8 | 270 | 1.6 | 14.5 | 0.00 | 0.00 | 0.00 | 48 | 1007.3 |
| 20260505090029 | 8 | 308 | 0.0 | 14.5 | 0.00 | 0.00 | 0.00 | 55 | 1007.3 |
| 20260505084528 | 8 | 271 | 3.2 | 11.3 | 0.00 | 0.00 | 0.00 | 58 | 1007.2 |
| 20260505083034 | 7 | 288 | 3.2 | 16.1 | 0.00 | 0.00 | 0.00 | 55 | 1007.1 |
| 20260505081529 | 7 | 278 | 0.0 | 11.3 | 0.00 | 0.00 | 0.00 | 57 | 1007.0 |
| 20260505080036 | 7 | 313 | 1.6 | 9.7 | 0.00 | 0.00 | 0.00 | 58 | 1006.9 |
| 20260505074523 | 7 | 289 | 1.6 | 8.0 | 0.00 | 0.00 | 0.00 | 60 | 1006.9 |
| 20260505073025 | 7 | 240 | 0.0 | 6.4 | 0.00 | 0.00 | 0.00 | 60 | 1006.8 |
| 20260505071532 | 7 | 293 | 0.0 | 6.4 | 0.00 | 0.00 | 0.00 | 64 | 1006.8 |
| 20260505070019 | 6 | 288 | 0.0 | 3.2 | 0.00 | 0.00 | 0.00 | 66 | 1006.6 |
| 20260505064517 | 6 | 319 | 0.0 | 3.2 | 0.00 | 0.00 | 0.00 | 65 | 1006.4 |
| 20260505063028 | 6 | 319 | 0.0 | 8.0 | 0.00 | 0.00 | 0.00 | 69 | 1006.4 |
| 20260505061517 | 6 | 321 | 0.0 | 6.4 | 0.00 | 0.05 | 0.00 | 74 | 1006.3 |
| 20260505060012 | 6 | 319 | 0.0 | 3.2 | 0.00 | 0.05 | 0.00 | 76 | 1006.2 |
| 20260505054511 | 6 | 294 | 0.0 | 9.7 | 0.00 | 0.05 | 0.00 | 78 | 1006.0 |
| 20260505053008 | 5 | 315 | 0.0 | 4.8 | 0.00 | 0.05 | 0.00 | 80 | 1006.0 |
| 20260505051507 | 5 | 326 | 0.0 | 14.5 | 0.00 | 0.05 | 0.00 | 80 | 1005.9 |
| 20260505041611 | 5 | 308 | 0.0 | 6.4 | 0.00 | 0.05 | 0.00 | 79 | 1005.4 |
| 20260505040104 | 6 | 308 | 0.0 | 1.6 | 0.00 | 0.05 | 0.00 | 80 | 1005.3 |
| 20260505034555 | 5 | 326 | 0.0 | 3.2 | 0.00 | 0.05 | 0.00 | 79 | 1005.0 |
| 20260505033054 | 6 | 315 | 0.0 | 1.6 | 0.00 | 0.05 | 0.00 | 81 | 1004.9 |
| 20260505031555 | 6 | 317 | 0.0 | 4.8 | 0.00 | 0.05 | 0.00 | 80 | 1004.6 |
| 20260505024551 | 6 | 305 | 1.6 | 8.0 | 0.00 | 0.05 | 0.00 | 77 | 1004.4 |
| 20260505023047 | 7 | 301 | 0.0 | 9.7 | 0.00 | 0.05 | 0.00 | 77 | 1004.2 |
| 20260505021551 | 7 | 323 | 4.8 | 12.9 | 0.00 | 0.05 | 0.00 | 75 | 1003.9 |
| 20260505020050 | 8 | 309 | 1.6 | 14.5 | 0.00 | 0.05 | 0.00 | 80 | 1003.7 |
| 20260505014535 | 8 | 273 | 3.2 | 12.9 | 0.00 | 0.05 | 0.00 | 81 | 1003.5 |
| 20260505013033 | 8 | 260 | 3.2 | 12.9 | 0.00 | 0.05 | 0.00 | 79 | 1003.3 |
| 20260505011534 | 8 | 238 | 0.0 | 8.0 | 0.00 | 0.05 | 0.00 | 78 | 1003.1 |
| 20260505010039 | 8 | 201 | 1.6 | 17.7 | 0.00 | 0.05 | 0.00 | 76 | 1003.0 |
| 20260505004528 | 8 | 205 | 3.2 | 19.3 | 0.00 | 0.05 | 0.00 | 74 | 1003.0 |
| 20260505003029 | 8 | 248 | 6.4 | 14.5 | 0.00 | 0.05 | 0.00 | 73 | 1002.9 |